KLWAKTVC

Guest
Details From KLWA - South Haven Area Rgnl
To KTVC - Cherry Capital
Flight Number -
Tags Generated
Created
Modified
Stats Distance 147 nm / 272 km
Max Altitude 0 ft / 0 m
Waypoints 2
Social Downloads 1
Likes 0
Share VATSIM

Download

Looking for another format? Having issues loading an existing format? Contact us
Advertisement - Login to hide

Notes

Generated

Route

KLWA KTVC

ID Type Via Altitude Latitude Longitude Leg Dist Tot Dist Heading (true) Name
O KLWA APT - 0 ft / 0 m 42.35217˚ -86.26269˚ - 0 nm - SOUTH HAVEN AREA RGNL
O KTVC APT - 0 ft / 0 m 44.75028˚ -85.58768˚ 146 nm 146 nm 11° / 12° -

Altitude Profile

Advertisement - Login to hide

KLWA

Details ICAO KLWA (LWA)
Name SOUTH HAVEN AREA RGNL
Region United States
Timezone America/Detroit (UTC-4.0)
Stats Elevation 666 ft / 203 m (AMSL)
Location 42.350882° -86.256057°
Runways 2
Magnetic Variation 5.117° W

METAR

KLWA 250356Z AUTO 00000KT 10SM CLR 17/14 A3005 RMK AO2 T01670139

Decode

TAF

Not found

Departure Runways

ID Width Length Bearing (true) Bearing (mag) Surface Threshold Offset Overrun Length
04 75 ft / 23 m 4,797 ft / 1,462 m 43.69° 48.81° Asphalt 0 ft / 0 m 0 ft / 0 m
14 190 ft / 58 m 3,270 ft / 997 m 132.27° 137.39° Grass 963 ft / 294 m 0 ft / 0 m
22 75 ft / 23 m 4,797 ft / 1,462 m 223.70° 228.82° Asphalt 500 ft / 152 m 0 ft / 0 m
32 190 ft / 58 m 3,270 ft / 997 m 312.28° 317.40° Grass 762 ft / 232 m 0 ft / 0 m

KTVC

Details ICAO KTVC (TVC)
Name CHERRY CAPITAL
Region United States
Timezone America/Detroit (UTC-4.0)
Stats Elevation 624 ft / 190 m (AMSL)
Location 44.741747° -85.582820°
Runways 2
Magnetic Variation 6.120° W

METAR

KTVC 250353Z AUTO 00000KT 10SM CLR 21/11 A2998 RMK AO2 SLP149 T02060106

Decode

TAF

TAF KTVC 242334Z 2500/2524 22006KT P6SM SCT150 FM250400 20006KT P6SM FEW200 WS013/23030KT FM251200 21008KT P6SM SCT050 WS013/25035KT FM251400 22010KT P6SM SCT050 FM252000 23012G22KT P6SM SCT200

Decode

Destination Runways

ID Width Length Bearing (true) Bearing (mag) Surface Threshold Offset Overrun Length
10 151 ft / 46 m 6,484 ft / 1,976 m 93.71° 99.83° Asphalt 0 ft / 0 m 0 ft / 0 m
18 151 ft / 46 m 5,383 ft / 1,641 m 180.15° 186.27° Asphalt 269 ft / 82 m 0 ft / 0 m
28 151 ft / 46 m 6,484 ft / 1,976 m 273.73° 279.85° Asphalt 0 ft / 0 m 0 ft / 0 m
36 151 ft / 46 m 5,383 ft / 1,641 m 0.15° 6.27° Asphalt 0 ft / 0 m 0 ft / 0 m

Approach Navaids

Runway Type Ident Frequency Range Bearing (true) Bearing (mag) Slope Elevation
28 Localiser ITVC 110.70 MHz 18 nm / 33 km 273.71° 279.83° - 624 ft / 190 m (AMSL)
28 Glidescope ITVC 110.70 MHz 10 nm / 19 km 273.72° 279.84° 3.00° 611 ft / 186 m (AMSL)